When you browse on this site, cookies collect data to enhance your experience and personalize the content and advertising you see.
Visit our Privacy Policy to learn more. By continuing to use the site, you agree to this use of cookies and data.
  • In Czech Republic
  • List of Countries
  • For 7 days
  • Water Temperature
  • Weather Map
  • Weather Widgets
  • user-avatar
    Login

    Hourly Weather La Massana

    Today, 7 June, Sunday

    Time Temperature Precipitation Wind Pressure Humidity
    00:00 +8°C° 0 mm 1 mps 605 mmHg 96%
    01:00 +7°C° 1.8 mm 1 mps 604 mmHg 95%
    02:00 +7°C° 1.8 mm 1 mps 604 mmHg 95%
    03:00 +6°C° 1.8 mm 1 mps 603 mmHg 95%
    04:00 +6°C° 0.6 mm 1 mps 604 mmHg 94%
    05:00 +7°C° 0.6 mm 1 mps 605 mmHg 94%
    06:00 +7°C° 0.6 mm 1 mps 605 mmHg 93%
    07:00 +7°C° 0.6 mm 1 mps 605 mmHg 92%
    08:00 +8°C° 0.6 mm 1 mps 606 mmHg 91%
    09:00 +8°C° 0.6 mm 1 mps 606 mmHg 90%
    10:00 +7°C° 1 mm 1 mps 606 mmHg 91%
    11:00 +7°C° 1 mm 1 mps 606 mmHg 93%
    12:00 +6°C° 1 mm 1 mps 606 mmHg 94%
    13:00 +5°C° 0.6 mm 2 mps 606 mmHg 94%
    14:00 +5°C° 0.6 mm 2 mps 606 mmHg 93%
    15:00 +5°C° 0.6 mm 2 mps 605 mmHg 93%
    16:00 +5°C° 0.4 mm 2 mps 605 mmHg 92%
    17:00 +6°C° 0.4 mm 1 mps 606 mmHg 92%
    18:00 +6°C° 0.4 mm 1 mps 606 mmHg 92%
    19:00 +6°C° 0.3 mm 1 mps 606 mmHg 92%
    20:00 +5°C° 0.3 mm 1 mps 606 mmHg 93%
    21:00 +4°C° 0.3 mm 1 mps 606 mmHg 94%
    22:00 +4°C° 0.1 mm 1 mps 606 mmHg 94%
    23:00 +4°C° 0.1 mm 1 mps 606 mmHg 94%

    Tomorrow, 8 June, Monday

    Time Temperature Precipitation Wind Pressure Humidity
    00:00 +4°C° 0.1 mm 1 mps 606 mmHg 94%
    01:00 +4°C° 0 mm 1 mps 606 mmHg 95%
    02:00 +4°C° 0 mm 1 mps 606 mmHg 95%
    03:00 +3°C° 0 mm 2 mps 606 mmHg 96%
    04:00 +3°C° 0 mm 2 mps 606 mmHg 94%
    05:00 +3°C° 0 mm 2 mps 606 mmHg 93%
    06:00 +3°C° 0 mm 2 mps 606 mmHg 91%
    07:00 +4°C° 0 mm 2 mps 607 mmHg 85%
    08:00 +5°C° 0 mm 2 mps 608 mmHg 78%
    09:00 +6°C° 0 mm 2 mps 608 mmHg 71%
    10:00 +7°C° 0.1 mm 2 mps 608 mmHg 66%
    11:00 +8°C° 0.1 mm 2 mps 609 mmHg 61%
    12:00 +9°C° 0.1 mm 2 mps 609 mmHg 56%
    13:00 +9°C° 0.2 mm 2 mps 609 mmHg 56%
    14:00 +9°C° 0.2 mm 2 mps 609 mmHg 56%
    15:00 +10°C° 0.2 mm 2 mps 609 mmHg 56%
    16:00 +9°C° 0.2 mm 2 mps 608 mmHg 64%
    17:00 +8°C° 0.2 mm 2 mps 608 mmHg 71%
    18:00 +7°C° 0.2 mm 2 mps 607 mmHg 79%
    19:00 +5°C° 0.1 mm 2 mps 607 mmHg 84%
    20:00 +4°C° 0.1 mm 2 mps 607 mmHg 88%
    21:00 +2°C° 0.1 mm 2 mps 607 mmHg 93%
    22:00 +2°C° 0 mm 2 mps 607 mmHg 93%
    23:00 +2°C° 0 mm 2 mps 607 mmHg 93%

    Day after tomorrow, 9 June, Tuesday

    Time Temperature Precipitation Wind Pressure Humidity
    00:00 +2°C° 0 mm 2 mps 607 mmHg 93%
    01:00 +2°C° 0 mm 2 mps 607 mmHg 93%
    02:00 +1°C° 0 mm 2 mps 607 mmHg 93%
    03:00 +1°C° 0 mm 2 mps 607 mmHg 94%
    04:00 +2°C° 0 mm 2 mps 607 mmHg 91%
    05:00 +3°C° 0 mm 2 mps 608 mmHg 88%
    06:00 +3°C° 0 mm 2 mps 608 mmHg 85%
    07:00 +5°C° 0 mm 2 mps 609 mmHg 76%
    08:00 +7°C° 0 mm 2 mps 610 mmHg 67%
    09:00 +9°C° 0 mm 2 mps 611 mmHg 58%
    10:00 +10°C° 0.1 mm 2 mps 611 mmHg 58%
    11:00 +10°C° 0.1 mm 2 mps 611 mmHg 59%
    12:00 +10°C° 0.1 mm 2 mps 611 mmHg 59%
    13:00 +10°C° 0.7 mm 2 mps 611 mmHg 64%
    14:00 +10°C° 0.7 mm 2 mps 610 mmHg 69%
    15:00 +10°C° 0.7 mm 2 mps 610 mmHg 73%
    16:00 +9°C° 0.8 mm 2 mps 610 mmHg 78%
    17:00 +8°C° 0.8 mm 2 mps 610 mmHg 83%
    18:00 +7°C° 0.8 mm 2 mps 609 mmHg 88%
    19:00 +6°C° 0.3 mm 2 mps 609 mmHg 90%
    20:00 +5°C° 0.3 mm 2 mps 609 mmHg 93%
    21:00 +4°C° 0.3 mm 2 mps 609 mmHg 96%
    22:00 +4°C° 0.2 mm 2 mps 609 mmHg 95%
    23:00 +4°C° 0.2 mm 2 mps 609 mmHg 95%

    10 June, Wednesday

    Time Temperature Precipitation Wind Pressure Humidity
    00:00 +5°C° 0.2 mm 1 mps 609 mmHg 95%
    01:00 +4°C° 0 mm 2 mps 609 mmHg 95%
    02:00 +3°C° 0 mm 2 mps 609 mmHg 94%
    03:00 +3°C° 0 mm 2 mps 609 mmHg 94%
    04:00 +3°C° 0 mm 2 mps 609 mmHg 93%
    05:00 +3°C° 0 mm 2 mps 609 mmHg 92%
    06:00 +4°C° 0 mm 2 mps 609 mmHg 91%
    07:00 +5°C° 0 mm 2 mps 610 mmHg 80%
    08:00 +8°C° 0 mm 1 mps 611 mmHg 69%
    09:00 +10°C° 0 mm 1 mps 612 mmHg 58%
    10:00 +10°C° 0 mm 2 mps 612 mmHg 53%
    11:00 +12°C° 0 mm 2 mps 612 mmHg 49%
    12:00 +13°C° 0 mm 2 mps 613 mmHg 45%
    13:00 +13°C° 0.1 mm 2 mps 612 mmHg 48%
    14:00 +13°C° 0.1 mm 2 mps 612 mmHg 52%
    15:00 +12°C° 0.1 mm 2 mps 611 mmHg 55%
    16:00 +10°C° 0.2 mm 2 mps 611 mmHg 65%
    17:00 +9°C° 0.2 mm 2 mps 610 mmHg 75%
    18:00 +7°C° 0.2 mm 2 mps 610 mmHg 85%
    19:00 +7°C° 0.1 mm 2 mps 610 mmHg 87%
    20:00 +7°C° 0.1 mm 1 mps 609 mmHg 89%
    21:00 +6°C° 0.1 mm 1 mps 609 mmHg 91%
    22:00 +6°C° 0 mm 1 mps 609 mmHg 92%
    23:00 +6°C° 0 mm 1 mps 609 mmHg 92%

    11 June, Thursday

    Time Temperature Precipitation Wind Pressure Humidity
    00:00 +5°C° 0 mm 1 mps 608 mmHg 92%
    01:00 +5°C° 0.4 mm 1 mps 608 mmHg 93%
    02:00 +5°C° 0.4 mm 1 mps 608 mmHg 94%
    03:00 +5°C° 0.4 mm 1 mps 607 mmHg 95%
    04:00 +5°C° 0.6 mm 1 mps 607 mmHg 95%
    05:00 +5°C° 0.6 mm 1 mps 607 mmHg 96%
    06:00 +5°C° 0.6 mm 1 mps 607 mmHg 96%
    07:00 +5°C° 0.3 mm 1 mps 607 mmHg 95%
    08:00 +5°C° 0.3 mm 1 mps 607 mmHg 94%
    09:00 +6°C° 0.3 mm 1 mps 607 mmHg 92%
    10:00 +7°C° 0.2 mm 1 mps 607 mmHg 89%
    11:00 +8°C° 0.2 mm 1 mps 607 mmHg 86%
    12:00 +9°C° 0.2 mm 1 mps 607 mmHg 83%
    13:00 +8°C° 0.3 mm 1 mps 607 mmHg 84%
    14:00 +8°C° 0.3 mm 1 mps 606 mmHg 86%
    15:00 +8°C° 0.3 mm 1 mps 606 mmHg 87%
    16:00 +8°C° 0.5 mm 1 mps 605 mmHg 89%
    17:00 +8°C° 0.5 mm 1 mps 605 mmHg 91%
    18:00 +7°C° 0.5 mm 1 mps 605 mmHg 92%
    19:00 +7°C° 1.2 mm 1 mps 605 mmHg 95%
    20:00 +7°C° 1.2 mm 1 mps 605 mmHg 97%
    21:00 +6°C° 1.2 mm 1 mps 605 mmHg 99%
    22:00 +6°C° 2.8 mm 1 mps 604 mmHg 99%
    23:00 +5°C° 2.8 mm 1 mps 604 mmHg 99%

    12 June, Friday

    Time Temperature Precipitation Wind Pressure Humidity
    00:00 +5°C° 2.8 mm 1 mps 603 mmHg 99%
    01:00 +4°C° 4 mm 1 mps 603 mmHg 99%
    02:00 +4°C° 4 mm 1 mps 602 mmHg 99%
    03:00 +3°C° 4 mm 1 mps 602 mmHg 99%
    04:00 +3°C° 2.9 mm 1 mps 602 mmHg 99%
    05:00 +3°C° 2.9 mm 1 mps 602 mmHg 98%
    06:00 +4°C° 2.9 mm 1 mps 602 mmHg 98%
    07:00 +5°C° 0.1 mm 1 mps 602 mmHg 93%
    08:00 +6°C° 0.1 mm 1 mps 602 mmHg 88%
    09:00 +6°C° 0.1 mm 2 mps 602 mmHg 82%
    10:00 +8°C° 0 mm 2 mps 603 mmHg 74%
    11:00 +9°C° 0 mm 2 mps 604 mmHg 66%
    12:00 +10°C° 0 mm 2 mps 604 mmHg 58%
    13:00 +9°C° 0.5 mm 2 mps 604 mmHg 64%
    14:00 +9°C° 0.5 mm 2 mps 604 mmHg 69%
    15:00 +8°C° 0.5 mm 2 mps 603 mmHg 75%
    16:00 +8°C° 0.4 mm 2 mps 603 mmHg 77%
    17:00 +7°C° 0.4 mm 2 mps 603 mmHg 79%
    18:00 +7°C° 0.4 mm 2 mps 603 mmHg 81%
    19:00 +5°C° 0.1 mm 2 mps 603 mmHg 85%
    20:00 +4°C° 0.1 mm 2 mps 603 mmHg 89%
    21:00 +3°C° 0.1 mm 2 mps 603 mmHg 93%
    22:00 +4°C° 0.1 mm 1 mps 603 mmHg 94%
    23:00 +4°C° 0.1 mm 1 mps 603 mmHg 94%
    Show more